Location: Tierra del Sol
(32.6128°N, 116.3319°W)
Time: 19:51:08
(UTC-07:00)

ISS - Pass Details

Date: 14 October 2017
Orbit: 401 x 408 km, 51.6° (Epoch: 22 October)

Event Time Altitude Azimuth Distance (km) Brightness Sun altitude
Rises 19:33:52 0° 317° (NW) 2,322 0.7 -17.8°
Reaches altitude 10° 19:35:58 10° 320° (NW) 1,461 -0.5 -18.2°
Enters shadow 19:39:09 64° 36° (NE) 452 -3.8 -18.9°
